SAS300 ENGM-ENBR

Flight info

Callsign SAS300
Flight time 0h 45m
Altitude 28000
Route ATLAP DCT AGEKU DCT PESUR
Aircraft A320/M-SDE3FGHIRWY/LB1

Departure

Time 2026-05-04 20:23
Airport Oslo-Gardermoen International Airport (ENGM)

Arrival

Time 2026-05-04 21:08
Airport Bergen Airport, Flesland (ENBR)
Time Latitude Longitude Altitude Speed Heading
2026-05-04 19:48 60.19516 11.09731 685 ft 0 kts 196°
2026-05-04 20:11 60.19535 11.09742 685 ft 4 kts 196°
2026-05-04 20:11 60.19558 11.09756 685 ft 1 kts 196°
2026-05-04 20:11 60.19559 11.09756 685 ft 0 kts 196°
2026-05-04 20:16 60.19555 11.09749 685 ft 1 kts 219°
2026-05-04 20:16 60.19556 11.09728 683 ft 2 kts 276°
2026-05-04 20:16 60.19572 11.09705 683 ft 4 kts 341°
2026-05-04 20:16 60.19613 11.09713 684 ft 8 kts 12°
2026-05-04 20:17 60.19676 11.09749 684 ft 11 kts 16°
2026-05-04 20:17 60.19756 11.09794 684 ft 13 kts 17°
2026-05-04 20:17 60.19853 11.09851 680 ft 16 kts 15°
2026-05-04 20:17 60.19948 11.09905 681 ft 11 kts 17°
2026-05-04 20:18 60.19972 11.10020 683 ft 11 kts 106°
2026-05-04 20:18 60.19948 11.10174 683 ft 13 kts 106°
2026-05-04 20:18 60.19921 11.10368 682 ft 16 kts 106°
2026-05-04 20:18 60.19887 11.10604 684 ft 19 kts 106°
2026-05-04 20:19 60.19848 11.10879 682 ft 22 kts 105°
2026-05-04 20:19 60.19803 11.11189 683 ft 24 kts 105°
2026-05-04 20:19 60.19749 11.11457 680 ft 16 kts 117°
2026-05-04 20:19 60.19714 11.11682 683 ft 14 kts 106°
2026-05-04 20:20 60.19703 11.11755 682 ft 3 kts 109°
2026-05-04 20:20 60.19692 11.11802 682 ft 5 kts 118°
2026-05-04 20:20 60.19663 11.11861 681 ft 4 kts 144°
2026-05-04 20:20 60.19662 11.11862 685 ft 0 kts 146°
2026-05-04 20:21 60.19641 11.11879 684 ft 5 kts 163°
2026-05-04 20:21 60.19594 11.11896 680 ft 8 kts 170°
2026-05-04 20:21 60.19543 11.11918 683 ft 0 kts 197°
2026-05-04 20:22 60.19505 11.11894 683 ft 28 kts 197°
2026-05-04 20:22 60.19084 11.11649 684 ft 96 kts 196°
2026-05-04 20:22 60.18268 11.11176 683 ft 146 kts 196°
2026-05-04 20:23 60.17233 11.10566 1069 ft 152 kts 197°
2026-05-04 20:23 60.16218 11.09990 1755 ft 152 kts 202°
2026-05-04 20:23 60.15133 11.09353 1990 ft 174 kts 204°
2026-05-04 20:23 60.13894 11.08619 2284 ft 197 kts 202°
2026-05-04 20:24 60.12464 11.08009 2524 ft 226 kts 192°
2026-05-04 20:24 60.10802 11.07620 2829 ft 255 kts 192°
2026-05-04 20:24 60.09009 11.07240 3623 ft 261 kts 191°
2026-05-04 20:24 60.07188 11.06787 4513 ft 263 kts 199°
2026-05-04 20:25 60.05588 11.05156 5414 ft 256 kts 227°
2026-05-04 20:25 60.04553 11.02359 6442 ft 251 kts 241°
2026-05-04 20:25 60.03662 10.99329 7257 ft 255 kts 243°
2026-05-04 20:25 60.02779 10.96241 8161 ft 256 kts 243°
2026-05-04 20:26 60.01896 10.93150 9056 ft 257 kts 243°
2026-05-04 20:26 60.01020 10.90025 9871 ft 258 kts 248°
2026-05-04 20:26 60.00582 10.86469 10168 ft 274 kts 271°
2026-05-04 20:26 60.00947 10.82678 10679 ft 284 kts 283°
2026-05-04 20:27 60.01478 10.78857 11454 ft 286 kts 283°
2026-05-04 20:27 60.02012 10.75020 12250 ft 287 kts 283°
2026-05-04 20:27 60.02536 10.71223 13037 ft 288 kts 283°
2026-05-04 20:27 60.03066 10.67356 13851 ft 289 kts 283°
2026-05-04 20:28 60.03593 10.63476 14568 ft 289 kts 283°
2026-05-04 20:28 60.04120 10.59583 15267 ft 290 kts 282°
2026-05-04 20:28 60.04647 10.55692 15957 ft 290 kts 282°
2026-05-04 20:28 60.05174 10.51793 16655 ft 290 kts 282°
2026-05-04 20:29 60.05702 10.47879 17322 ft 292 kts 282°
2026-05-04 20:29 60.06231 10.43951 18007 ft 293 kts 282°
2026-05-04 20:29 60.06760 10.40004 18613 ft 294 kts 282°
2026-05-04 20:29 60.07291 10.36028 19191 ft 297 kts 281°
2026-05-04 20:30 60.07825 10.32018 19775 ft 299 kts 281°
2026-05-04 20:30 60.08363 10.27979 20364 ft 302 kts 281°
2026-05-04 20:30 60.08903 10.23897 20916 ft 304 kts 281°
2026-05-04 20:30 60.09445 10.19781 21460 ft 307 kts 281°
2026-05-04 20:31 60.09990 10.15632 22005 ft 309 kts 281°
2026-05-04 20:31 60.10539 10.11442 22545 ft 312 kts 281°
2026-05-04 20:31 60.11089 10.07212 23087 ft 315 kts 281°
2026-05-04 20:31 60.11644 10.02941 23579 ft 318 kts 281°
2026-05-04 20:32 60.12204 9.98640 24017 ft 320 kts 281°
2026-05-04 20:32 60.12769 9.94301 24438 ft 323 kts 281°
2026-05-04 20:32 60.13334 9.89924 24851 ft 325 kts 281°
2026-05-04 20:32 60.13894 9.85581 25258 ft 327 kts 281°
2026-05-04 20:33 60.14461 9.81135 25657 ft 329 kts 279°
2026-05-04 20:33 60.14766 9.76575 26055 ft 330 kts 273°
2026-05-04 20:33 60.14959 9.71969 26447 ft 332 kts 273°
2026-05-04 20:33 60.15152 9.67333 26820 ft 335 kts 273°
2026-05-04 20:34 60.15344 9.62658 27192 ft 337 kts 272°
2026-05-04 20:34 60.15535 9.57954 27557 ft 339 kts 272°
2026-05-04 20:34 60.15726 9.53213 27739 ft 339 kts 272°
2026-05-04 20:34 60.15914 9.48591 27765 ft 327 kts 272°
2026-05-04 20:35 60.16094 9.44081 27770 ft 323 kts 272°
2026-05-04 20:35 60.16268 9.39599 27766 ft 321 kts 272°
2026-05-04 20:35 60.16440 9.35128 27795 ft 321 kts 272°
2026-05-04 20:35 60.16613 9.30662 27781 ft 320 kts 272°
2026-05-04 20:36 60.16785 9.26210 27782 ft 320 kts 272°
2026-05-04 20:36 60.16955 9.21810 27780 ft 320 kts 272°
2026-05-04 20:36 60.17127 9.17359 27781 ft 320 kts 272°
2026-05-04 20:36 60.17297 9.12904 27779 ft 320 kts 272°
2026-05-04 20:37 60.17464 9.08450 27789 ft 320 kts 272°
2026-05-04 20:37 60.17627 9.04002 27791 ft 320 kts 272°
2026-05-04 20:37 60.17787 8.99548 27792 ft 320 kts 272°
2026-05-04 20:37 60.17947 8.95087 27791 ft 320 kts 272°
2026-05-04 20:38 60.18107 8.90635 27796 ft 320 kts 272°
2026-05-04 20:38 60.18267 8.86176 27796 ft 320 kts 272°
2026-05-04 20:38 60.18424 8.81721 27810 ft 320 kts 272°
2026-05-04 20:38 60.18580 8.77265 27811 ft 320 kts 272°
2026-05-04 20:39 60.18735 8.72809 27811 ft 319 kts 272°
2026-05-04 20:39 60.18888 8.68352 27807 ft 319 kts 272°
2026-05-04 20:39 60.19038 8.63897 27805 ft 319 kts 272°
2026-05-04 20:39 60.19185 8.59445 27804 ft 320 kts 272°
2026-05-04 20:40 60.19331 8.54987 27818 ft 320 kts 272°
2026-05-04 20:40 60.19475 8.50529 27817 ft 320 kts 272°
2026-05-04 20:40 60.19618 8.46064 27816 ft 320 kts 272°
2026-05-04 20:40 60.19757 8.41610 27816 ft 320 kts 272°
2026-05-04 20:41 60.19894 8.37146 27816 ft 320 kts 272°
2026-05-04 20:41 60.20032 8.32676 27819 ft 320 kts 272°
2026-05-04 20:41 60.20174 8.28200 27807 ft 322 kts 272°
2026-05-04 20:41 60.20316 8.23677 27816 ft 325 kts 272°
2026-05-04 20:42 60.20457 8.19132 27825 ft 326 kts 272°
2026-05-04 20:42 60.20596 8.14581 27830 ft 326 kts 272°
2026-05-04 20:42 60.20733 8.10074 27601 ft 319 kts 272°
2026-05-04 20:42 60.20865 8.05670 27329 ft 312 kts 272°
2026-05-04 20:43 60.20993 8.01360 27103 ft 306 kts 272°
2026-05-04 20:43 60.21112 7.97185 26845 ft 300 kts 272°
2026-05-04 20:43 60.21227 7.92963 26582 ft 297 kts 272°
2026-05-04 20:43 60.21340 7.88836 26324 ft 295 kts 272°
2026-05-04 20:44 60.21451 7.84716 25379 ft 308 kts 272°
2026-05-04 20:44 60.21568 7.80348 24871 ft 309 kts 272°
2026-05-04 20:44 60.21683 7.76121 24879 ft 296 kts 272°
2026-05-04 20:44 60.21796 7.72056 24876 ft 288 kts 272°
2026-05-04 20:45 60.21904 7.68052 24872 ft 286 kts 272°
2026-05-04 20:45 60.22008 7.64060 24875 ft 286 kts 272°
2026-05-04 20:45 60.22112 7.60068 24875 ft 286 kts 272°
2026-05-04 20:45 60.22216 7.56077 24872 ft 286 kts 272°
2026-05-04 20:46 60.22318 7.52101 24650 ft 283 kts 271°
2026-05-04 20:46 60.22417 7.48178 24349 ft 279 kts 271°
2026-05-04 20:46 60.22511 7.44314 24038 ft 274 kts 271°
2026-05-04 20:46 60.22602 7.40511 23724 ft 270 kts 271°
2026-05-04 20:47 60.22692 7.36754 23408 ft 267 kts 271°
2026-05-04 20:47 60.22781 7.33059 23076 ft 263 kts 272°
2026-05-04 20:47 60.22866 7.29423 22757 ft 258 kts 272°
2026-05-04 20:47 60.22949 7.25857 22451 ft 253 kts 272°
2026-05-04 20:48 60.23027 7.22408 22175 ft 248 kts 272°
2026-05-04 20:48 60.23104 7.18972 21886 ft 244 kts 272°
2026-05-04 20:48 60.23179 7.15597 21601 ft 240 kts 272°
2026-05-04 20:48 60.23253 7.12268 21318 ft 237 kts 272°
2026-05-04 20:49 60.23325 7.08963 21035 ft 236 kts 272°
2026-05-04 20:49 60.23396 7.05676 20763 ft 235 kts 272°
2026-05-04 20:49 60.23464 7.02411 20468 ft 233 kts 272°
2026-05-04 20:49 60.23534 6.99154 20206 ft 232 kts 272°
2026-05-04 20:50 60.23601 6.95924 19941 ft 230 kts 272°
2026-05-04 20:50 60.23668 6.92710 19669 ft 229 kts 272°
2026-05-04 20:50 60.23733 6.89519 19394 ft 228 kts 272°
2026-05-04 20:50 60.23797 6.86325 19121 ft 227 kts 272°
2026-05-04 20:51 60.23860 6.83160 18854 ft 226 kts 272°
2026-05-04 20:51 60.23924 6.80011 18576 ft 224 kts 272°
2026-05-04 20:51 60.23984 6.76874 18307 ft 223 kts 272°
2026-05-04 20:51 60.24042 6.73751 18025 ft 222 kts 272°
2026-05-04 20:52 60.24099 6.70652 17739 ft 221 kts 272°
2026-05-04 20:52 60.24155 6.67555 17490 ft 221 kts 272°
2026-05-04 20:52 60.24214 6.64459 17214 ft 222 kts 273°
2026-05-04 20:52 60.24273 6.61330 16848 ft 225 kts 273°
2026-05-04 20:53 60.24318 6.58221 16493 ft 225 kts 270°
2026-05-04 20:53 60.24231 6.55085 16146 ft 224 kts 269°
2026-05-04 20:53 60.24145 6.51971 15811 ft 222 kts 269°
2026-05-04 20:53 60.24059 6.48863 15469 ft 222 kts 269°
2026-05-04 20:54 60.23972 6.45761 15128 ft 222 kts 269°
2026-05-04 20:54 60.23885 6.42638 14793 ft 224 kts 269°
2026-05-04 20:54 60.23795 6.39503 14453 ft 224 kts 269°
2026-05-04 20:54 60.23706 6.36356 14118 ft 225 kts 269°
2026-05-04 20:55 60.23616 6.33195 13784 ft 226 kts 270°
2026-05-04 20:55 60.23523 6.30016 13411 ft 228 kts 270°
2026-05-04 20:55 60.23429 6.26841 13065 ft 228 kts 269°
2026-05-04 20:55 60.23336 6.23661 12727 ft 227 kts 269°
2026-05-04 20:56 60.23242 6.20474 12384 ft 229 kts 269°
2026-05-04 20:56 60.23145 6.17271 12053 ft 229 kts 269°
2026-05-04 20:56 60.23044 6.14082 11744 ft 228 kts 269°
2026-05-04 20:56 60.22944 6.10904 11415 ft 227 kts 269°
2026-05-04 20:57 60.22844 6.07729 11086 ft 227 kts 269°
2026-05-04 20:57 60.22745 6.04565 10754 ft 227 kts 269°
2026-05-04 20:57 60.22646 6.01440 10440 ft 227 kts 269°
2026-05-04 20:57 60.22542 5.98272 10112 ft 227 kts 269°
2026-05-04 20:58 60.22439 5.95094 9794 ft 228 kts 269°
2026-05-04 20:58 60.22336 5.91899 9449 ft 229 kts 269°
2026-05-04 20:58 60.22231 5.88686 9114 ft 231 kts 269°
2026-05-04 20:58 60.22010 5.85482 8804 ft 233 kts 258°
2026-05-04 20:59 60.21395 5.82460 8481 ft 237 kts 245°
2026-05-04 20:59 60.20563 5.79597 8182 ft 236 kts 244°
2026-05-04 20:59 60.19750 5.76796 7999 ft 229 kts 244°
2026-05-04 20:59 60.18958 5.74061 7839 ft 225 kts 244°
2026-05-04 21:00 60.18170 5.71326 7708 ft 226 kts 244°
2026-05-04 21:00 60.17649 5.69513 7617 ft 226 kts 244°
2026-05-04 21:00 60.16864 5.66777 7414 ft 227 kts 244°
2026-05-04 21:00 60.16075 5.64046 7144 ft 226 kts 244°
2026-05-04 21:01 60.15286 5.61324 6856 ft 226 kts 244°
2026-05-04 21:01 60.14493 5.58600 6538 ft 226 kts 243°
2026-05-04 21:01 60.13696 5.55869 6197 ft 227 kts 243°
2026-05-04 21:01 60.12896 5.53131 5848 ft 227 kts 243°
2026-05-04 21:02 60.12096 5.50392 5508 ft 228 kts 243°
2026-05-04 21:02 60.11295 5.47656 5176 ft 228 kts 243°
2026-05-04 21:02 60.10492 5.44914 4836 ft 228 kts 244°
2026-05-04 21:02 60.09923 5.41989 4497 ft 224 kts 261°
2026-05-04 21:03 60.09839 5.38908 4152 ft 221 kts 278°
2026-05-04 21:03 60.10115 5.35887 3812 ft 220 kts 282°
2026-05-04 21:03 60.10419 5.32925 3669 ft 211 kts 288°
2026-05-04 21:03 60.11040 5.30379 3614 ft 196 kts 307°
2026-05-04 21:04 60.11969 5.28503 3507 ft 186 kts 324°
2026-05-04 21:04 60.13096 5.27333 3320 ft 181 kts 341°
2026-05-04 21:04 60.14318 5.26830 3113 ft 176 kts 348°
2026-05-04 21:04 60.15508 5.26436 2872 ft 169 kts 348°
2026-05-04 21:05 60.16623 5.26066 2624 ft 154 kts 348°
2026-05-04 21:05 60.17645 5.25726 2414 ft 148 kts 348°
2026-05-04 21:05 60.18660 5.25386 2208 ft 150 kts 348°
2026-05-04 21:05 60.19688 5.25043 1995 ft 147 kts 349°
2026-05-04 21:06 60.20652 5.24722 1809 ft 136 kts 349°
2026-05-04 21:06 60.21569 5.24415 1600 ft 132 kts 348°
2026-05-04 21:06 60.22466 5.24111 1436 ft 130 kts 348°
2026-05-04 21:06 60.23357 5.23818 1226 ft 129 kts 348°
2026-05-04 21:07 60.24234 5.23521 1047 ft 129 kts 348°
2026-05-04 21:07 60.25127 5.23219 851 ft 131 kts 350°
2026-05-04 21:07 60.26030 5.22924 671 ft 132 kts 349°
2026-05-04 21:07 60.26937 5.22609 477 ft 132 kts 350°
2026-05-04 21:08 60.27844 5.22307 298 ft 131 kts 351°
2026-05-04 21:08 60.28735 5.22015 182 ft 122 kts 351°
2026-05-04 21:08 60.29439 5.21793 173 ft 79 kts 350°
2026-05-04 21:08 60.29827 5.21657 175 ft 46 kts 351°
2026-05-04 21:09 60.30029 5.21643 174 ft 19 kts 43°
2026-05-04 21:09 60.30050 5.21851 170 ft 12 kts 99°
2026-05-04 21:09 60.29971 5.21934 168 ft 16 kts 171°
2026-05-04 21:09 60.29858 5.21970 168 ft 18 kts 171°
2026-05-04 21:10 60.29734 5.22006 169 ft 18 kts 171°
2026-05-04 21:10 60.29604 5.22051 171 ft 19 kts 170°
2026-05-04 21:10 60.29477 5.22094 177 ft 19 kts 171°
2026-05-04 21:10 60.29338 5.22140 177 ft 21 kts 169°
2026-05-04 21:11 60.29186 5.22195 176 ft 25 kts 171°
2026-05-04 21:11 60.29003 5.22253 174 ft 28 kts 171°
2026-05-04 21:11 60.28816 5.22315 174 ft 23 kts 170°
2026-05-04 21:11 60.28706 5.22357 174 ft 13 kts 160°
2026-05-04 21:12 60.28703 5.22498 174 ft 13 kts 58°
2026-05-04 21:12 60.28722 5.22694 174 ft 16 kts 82°
2026-05-04 21:12 60.28733 5.22857 174 ft 6 kts 82°
2026-05-04 21:12 60.28736 5.22898 174 ft 0 kts 82°